Appleton, WI

4:21 AM CDT on October 22, 2019 (GMT -0500)
Outagamie County Regional

Weather History for KATW - August, 2019

Change the Weather History Date:

Wednesday, August 21, 2019

  Actual Average Record
Temperature  
Mean Temperature 67 °F -  
Max Temperature 75 °F 77 °F 99 °F (1955)
Min Temperature 59 °F 58 °F 42 °F (2004)
Cooling Degree Days 2    
Growing Degree Days 17 (Base 50)    
Moisture  
Dew Point 56 °F    
Average Humidity 73    
Maximum Humidity 100    
Minimum Humidity 41    
Precipitation  
Precipitation 0.00 in - - ()
Sea Level Pressure  
Sea Level Pressure 29.95 in    
Wind  
Wind Speed 6 mph ()    
Max Wind Speed 16 mph    
Max Gust Speed -    
Visibility 10.0 miles    
Events      
Averages and records for this station are not official NWS values.
T = Trace of Precipitation, MM = Missing Value Source: Averaged Metar Reports

Daily Weather History Graph

Daily Weather History Graph

Search for Another Location

Airport or City:

Astronomy

Aug. 21, 2019 Rise Set
Actual Time 6:04 AM CDT 7:49 PM CDT
Civil Twilight 5:33 AM CDT 8:20 PM CDT
Nautical Twilight 4:55 AM CDT 8:57 PM CDT
Astronomical Twilight 4:14 AM CDT 9:38 PM CDT
Moon 10:54 PM CDT (8/21) 11:51 AM CDT (8/21)
Length of Visible Light 14h 47m
Length of Day
13h 45m
Waning Gibbous, 69% of the Moon is Illuminated
Aug 21
Waning Gibbous
Aug 23
Last Quarter
Aug 30
New
Sep 5
First Quarter
Sep 13
Full

Hourly Weather History & Observations

Time (CDT) Temp. Dew Point Humidity Pressure Visibility Wind Dir Wind Speed Gust Speed Precip Events Conditions
12:35 AM 66.2 °F 60.8 °F 83% 29.94 in 10.0 mi WNW 6.9 mph - N/A   Clear
12:55 AM 68.0 °F 60.8 °F 78% 29.94 in 10.0 mi WNW 8.1 mph - N/A   Mostly Cloudy
1:15 AM 66.2 °F 60.8 °F 83% 29.94 in 10.0 mi West 6.9 mph - N/A   Overcast
1:55 AM 64.4 °F 59.0 °F 83% 29.93 in 10.0 mi WNW 3.5 mph - N/A   Scattered Clouds
2:15 AM 64.4 °F 59.0 °F 83% 29.92 in 10.0 mi WNW 6.9 mph - N/A   Scattered Clouds
2:35 AM 64.4 °F 60.8 °F 88% 29.92 in 10.0 mi West 4.6 mph - N/A   Clear
2:55 AM 62.6 °F 60.8 °F 94% 29.93 in 10.0 mi South 3.5 mph - N/A   Scattered Clouds
3:15 AM 62.6 °F 60.8 °F 94% 29.93 in 10.0 mi SSW 3.5 mph - N/A   Mostly Cloudy
3:35 AM 62.6 °F 60.8 °F 94% 29.93 in 10.0 mi West 3.5 mph - N/A   Mostly Cloudy
3:55 AM 62.6 °F 60.8 °F 94% 29.92 in 10.0 mi West 5.8 mph - N/A   Scattered Clouds
4:15 AM 62.6 °F 60.8 °F 94% 29.92 in 10.0 mi West 6.9 mph - N/A   Clear
4:35 AM 62.6 °F 60.8 °F 94% 29.92 in 10.0 mi West 3.5 mph - N/A   Clear
5:15 AM 60.8 °F 60.8 °F 100% 29.90 in 10.0 mi Calm Calm - N/A   Clear
5:20 AM 62.6 °F 62.6 °F 100% 29.91 in 10.0 mi Calm Calm - N/A   Clear
5:45 AM 62.6 °F 60.8 °F 94% 29.89 in 10.0 mi Calm Calm - N/A   Partly Cloudy
6:45 AM 64.4 °F 64.4 °F 100% 29.90 in 10.0 mi NW 5.8 mph - N/A   Scattered Clouds
7:45 AM 66.2 °F 66.2 °F 100% 29.95 in 10.0 mi NW 6.9 mph - N/A   Scattered Clouds
8:45 AM 68.0 °F 66.2 °F 94% 29.96 in 10.0 mi North 6.9 mph - N/A   Mostly Cloudy
9:45 AM 71.6 °F 66.2 °F 83% 29.96 in 10.0 mi NNE 8.1 mph - N/A   Scattered Clouds
10:45 AM 71.6 °F 66.2 °F 83% 29.96 in 10.0 mi North 8.1 mph - N/A   Mostly Cloudy
11:45 AM 73.4 °F 60.8 °F 65% 29.97 in 10.0 mi NW 8.1 mph - N/A   Mostly Cloudy
12:45 PM 75.2 °F 51.8 °F 44% 29.96 in 10.0 mi WNW 9.2 mph - N/A   Mostly Cloudy
1:45 PM 75.2 °F 53.6 °F 47% 29.95 in 10.0 mi WNW 16.1 mph - N/A   Mostly Cloudy
2:45 PM 75.2 °F 51.8 °F 44% 29.94 in 10.0 mi NW 11.5 mph - N/A   Mostly Cloudy
3:45 PM 75.2 °F 51.8 °F 44% 29.95 in 10.0 mi WNW 10.4 mph - N/A   Mostly Cloudy
4:45 PM 75.2 °F 50.0 °F 41% 29.96 in 10.0 mi NW 10.4 mph - N/A   Mostly Cloudy
5:45 PM 75.2 °F 50.0 °F 41% 29.96 in 10.0 mi NNW 10.4 mph - N/A   Mostly Cloudy
6:45 PM 71.6 °F 50.0 °F 46% 29.95 in 10.0 mi NNW 8.1 mph - N/A   Mostly Cloudy
7:45 PM 68.0 °F 44.6 °F 43% 29.96 in 10.0 mi NNW 6.9 mph - N/A   Mostly Cloudy
8:45 PM 66.2 °F 44.6 °F 46% 29.97 in 10.0 mi NNW 6.9 mph - N/A   Mostly Cloudy
9:45 PM 64.4 °F 50.0 °F 59% 30.00 in 10.0 mi North 8.1 mph - N/A   Mostly Cloudy
10:45 PM 60.8 °F 48.2 °F 63% 30.00 in 10.0 mi North 6.9 mph - N/A   Mostly Cloudy
10:55 PM 60.8 °F 44.6 °F 55% 30.01 in 10.0 mi North 6.9 mph - N/A   Clear
11:15 PM 59.0 °F 44.6 °F 59% 30.02 in 10.0 mi North 4.6 mph - N/A   Clear
11:35 PM 59.0 °F 42.8 °F 55% 30.02 in 10.0 mi North 5.8 mph - N/A   Clear
11:55 PM 59.0 °F 42.8 °F 55% 30.02 in 10.0 mi North 3.5 mph - N/A   Clear